This is the latest recevied weather packets stored in our database for station/object EA1CUE-WX. If no packets are shown the sender has not sent any weather packets the latest 10 day(s).
| Time | Temp. | Humidity | Pressure | Rain* | Wind** | Luminosity | Snow |
|---|---|---|---|---|---|---|---|
| 1777577925 | 12.22° C | 1% | 1018.1 hPa | 0 mm | - | - | - |
| 1777577625 | 12.22° C | 1% | 1018 hPa | 0 mm | - | - | - |
| 1777577325 | 12.22° C | 1% | 1018 hPa | 0 mm | - | - | - |
| 1777577025 | 12.22° C | 1% | 1017.9 hPa | 0 mm | - | - | - |
| 1777576725 | 12.78° C | 1% | 1017.9 hPa | 0 mm | - | - | - |
| 1777576425 | 12.78° C | 1% | 1017.8 hPa | 0 mm | - | - | - |
| 1777576125 | 12.78° C | 1% | 1017.8 hPa | 0 mm | - | - | - |
| 1777575825 | 13.33° C | 1% | 1017.8 hPa | 0 mm | - | - | - |
| 1777575525 | 13.33° C | 1% | 1017.7 hPa | 0 mm | - | - | - |
| 1777575225 | 13.33° C | 1% | 1017.6 hPa | 0 mm | - | - | - |
| 1777574925 | 13.89° C | 1% | 1017.7 hPa | 0 mm | - | - | - |
| 1777574625 | 13.89° C | 1% | 1017.6 hPa | 0 mm | - | - | - |
| 1777574325 | 13.89° C | 6% | 1017.5 hPa | 0 mm | - | - | - |
| 1777574025 | 13.89° C | 10% | 1017.6 hPa | 0 mm | - | - | - |
| 1777573725 | 14.44° C | 16% | 1017.4 hPa | 0 mm | - | - | - |
| 1777573425 | 14.44° C | 21% | 1017.4 hPa | 0 mm | - | - | - |
| 1777573125 | 15° C | 13% | 1017.3 hPa | 0 mm | - | - | - |
| 1777572825 | 14.44° C | 17% | 1017.2 hPa | 0 mm | - | - | - |
| 1777572525 | 14.44° C | 24% | 1017.1 hPa | 0 mm | - | - | - |
| 1777572225 | 15° C | 27% | 1017.2 hPa | 0 mm | - | - | - |
| 1777571925 | 15° C | 31% | 1017.2 hPa | 0 mm | - | - | - |
| 1777571625 | 15.56° C | 34% | 1017.2 hPa | 0 mm | - | - | - |
| 1777571325 | 15.56° C | 32% | 1017.1 hPa | 0 mm | - | - | - |
| 1777571025 | 15° C | 32% | 1017.1 hPa | 0 mm | - | - | - |
| 1777570725 | 14.44° C | 36% | 1017.1 hPa | 0 mm | - | - | - |
* Rain latest hour (hover to see other rain measurements)
** Current wind speed in m/s (hover to see current wind gust speed)